Location: Newark
(35.2672°N, 80.7344°W)
Time: 04:37:08
(UTC+00:00)

Tiros 1 - Pass Details

Date: 29 January 2020
Orbit: 630 x 664 km, 48.4° (Epoch: 16 February)

Event Time Altitude Azimuth Distance (km) Brightness Sun altitude
Rises 15:46:32 0° 230° (SW) 2,908 10.6 30.8°
Reaches altitude 10° 15:48:50 10° 229° (SW) 2,006 9.9 31.0°
Maximum altitude 15:53:27 85° 144° (SE) 642 7.8 31.5°
Drops below altitude 10° 15:58:09 10° 54° (NE) 2,033 9.7 31.9°
Sets 16:00:29 0° 54° (NE) 2,951 10.5 32.2°
